Location: Chandolas
(44.4033°N, 4.2533°E)
Time: 17:02:36
(UTC+00:00)

Cosmos 1400 Rocket - Pass Details

Date: 15 November 2019
Orbit: 522 x 568 km, 81.2° (Epoch: 10 December)

Event Time Altitude Azimuth Distance (km) Brightness Sun altitude
Rises 05:57:45 0° 351° (N) 2,767 6.1 -7.6°
Reaches altitude 10° 05:59:58 10° 353° (N) 1,860 5.3 -7.2°
Maximum altitude 06:04:04 75° 79° (ENE) 579 3.1 -6.5°
Drops below altitude 10° 06:08:05 10° 165° (SSE) 1,819 6.0 -5.8°
Sets 06:10:13 0° 167° (SSE) 2,699 6.9 -5.5°
